Location: Unspecified
(0.0000°N, 0.0000°E)
Time: 13:33:31
(UTC+00:00)

S-56A Canister/Altair - Pass Details

Date: 25 May 2024
Orbit: 637 x 2489 km, 38.9° (Epoch: 17 June)

Event Time Altitude Azimuth Distance (km) Brightness Sun altitude
Rises 22:25:53 0° 197° (SSW) 4,937 - -59.3°
Reaches altitude 10° 22:31:00 10° 176° (S) 4,317 - -60.2°
Maximum altitude 22:37:33 16° 142° (SE) 4,227 - -61.3°
Drops below altitude 10° 22:44:56 10° 110° (ESE) 4,999 - -62.5°
Sets 22:51:38 0° 91° (E) 6,143 - -63.5°
